< Cyclone 198217 1983 Season Cyclone 198302 >
Cyclone 198301 (JANE)
General InformationTrack Information on Google MapsDetailed Wind InformationList of All Images || ResourceGoogle EarthGE AnimationAtom FeedGeoJSON
Detalied Best Track (Time Zone = UTC)
Year Month Day Hour Lat. Long. Pressure (hPa) Wind (kt) Class Image Chart
1983 1 2 00 -10.7 111.5 1003 20 2 Image --
1983 1 2 06 -11.3 112.6 1000 25 2 Image --
1983 1 2 12 -11.9 114.1 994 25 2 Image --
1983 1 2 18 -12.4 114.9 992 25 2 Image --
1983 1 3 00 -13.1 115.0 990 30 2 Image --
1983 1 3 06 -13.3 115.1 987 30 2 Image --
1983 1 3 12 -13.6 115.1 984 30 2 Image --
1983 1 3 18 -14.0 115.2 982 40 3 Image --
1983 1 4 00 -14.4 115.4 979 50 4 Image --
1983 1 4 06 -14.7 115.4 977 50 4 Image --
1983 1 4 12 -14.9 115.1 975 55 4 Image --
1983 1 4 18 -14.7 114.9 970 55 4 Image --
1983 1 5 00 -14.4 115.0 972 55 4 Image --
1983 1 5 06 -14.3 115.5 974 55 4 Image --
1983 1 5 12 -13.9 116.0 976 55 4 Image --
1983 1 5 18 -13.6 116.9 978 55 4 Image --
1983 1 6 00 -13.4 117.7 980 50 4 Image --
1983 1 6 06 -13.6 118.7 980 50 4 Image --
1983 1 6 12 -14.6 118.9 980 50 4 Image --
1983 1 6 18 -14.9 119.0 978 50 4 Image --
1983 1 7 00 -15.2 118.9 974 55 4 Image --
1983 1 7 06 -16.1 118.5 972 55 4 Image --
1983 1 7 12 -16.7 118.1 970 60 4 Image --
1983 1 7 18 -17.1 118.2 968 65 5 Image --
1983 1 8 00 -17.2 118.2 967 70 5 Image --
1983 1 8 03 -17.4 118.3 966 75 5 Image --
1983 1 8 06 -17.6 118.4 965 80 5 Image --
1983 1 8 09 -17.8 118.5 963 80 5 Image --
1983 1 8 12 -17.9 118.6 960 80 5 Image --
1983 1 8 15 -18.0 118.5 958 80 5 Image --
1983 1 8 18 -18.3 118.5 956 80 5 Image --
1983 1 8 21 -18.6 118.6 953 85 5 Image --
1983 1 9 00 -18.9 119.0 950 90 5 Image --
1983 1 9 03 -19.3 119.2 948 90 5 Image --
1983 1 9 06 -19.8 119.6 947 90 5 Image --
1983 1 9 09 -20.0 119.8 947 80 5 Image --
1983 1 9 12 -20.3 120.1 952 70 5 Image --
1983 1 9 15 -20.6 120.6 954 60 4 Image --
1983 1 9 18 -21.1 121.1 958 50 4 Image --
1983 1 9 21 -21.6 121.7 962 40 3 Image --
1983 1 10 00 -22.2 122.5 966 40 3 Image --
1983 1 10 03 -22.7 123.1 970 35 3 Image --
1983 1 10 06 -23.1 123.6 974 35 3 Image --
1983 1 10 09 -23.5 124.3 980 30 2 Image --
1983 1 10 12 -23.9 125.5 985 30 2 Image --
1983 1 10 15 -23.6 127.5 990 25 2 Image --
1983 1 10 18 -23.4 129.0 992 25 2 Image --
< Cyclone 198217 1983 Season Cyclone 198302 >

Help